{"data":{"norad_id":53486,"epoch":"2026-09-20T07:15:21.750912Z","epoch_age_seconds":95482,"freshness":"FRESH","line1":"1 53486U 22099X   26263.30233508  .00015286  00000+0  42569-3 0  9991","line2":"2 53486  97.4959  31.1382 0001096 139.4527 220.6799 15.36897023225879","mean_motion":15.36897023,"eccentricity":0.0001096,"inclination_deg":97.4959,"raan_deg":31.1382,"arg_perigee_deg":139.4527,"mean_anomaly_deg":220.6799,"bstar":0.00042569,"rev_number":22587,"period_min":93.695282016302,"perigee_km":454.54266810706,"apogee_km":456.04055565879,"semimajor_km":6833.4286118829,"source":"CELESTRAK","updated_at":"2026-09-21T09:00:32.891832Z"}}